Regional Weather Roundup
Issued by NWS Little Rock, AR

Home | Current Version | Previous Version | Text Only | Print | Product List | Glossary On
Versions: 1 2 3 4 5 6 7 8 9 10 11 12 13 14 15 16 17 18 19 20 21 22 23 24 25 26 27 28 29 30 31 32 33 34 35 36 37 38 39 40 41 42 43 44 45 46 47 48 49 50
000
ASUS44 KLZK 191605
RWRLZK

WEATHER ROUNDUP FOR ARKANSAS
NATIONAL WEATHER SERVICE LITTLE ROCK AR
1000 AM CST FRI DEC 19 2014

NOTE: "FAIR" INDICATES FEW OR NO CLOUDS BELOW 12,000 FEET WITH NO
SIGNIFICANT WEATHER AND/OR OBSTRUCTIONS TO VISIBILITY.

ARZ001-003-010-029-191700-
NORTHWEST ARKANSAS

CITY           SKY/WX    TMP DP  RH WIND       PRES   REMARKS
FAYETTEVILLE   FOG       40  40 100 E3        30.23S VSB 1/4
FORT SMITH     CLOUDY    42  38  85 E7        30.25S FOG
HARRISON       FOG       37  37 100 SE5       30.24R VSB 1/4
BENTONVILLE    CLOUDY    39  37  93 NE3       30.24R
ROGERS         CLOUDY    39  38  96 E7        30.23F
SILOAM SPGS    CLOUDY    39  36  87 CALM      30.24S VSB 1/2
HIGHFILL       FOG       40  40 100 NE5       30.22S VSB 3/4
SPRINGDALE     FOG       39  39 100 NE3       30.25S VSB 1
$$

ARZ004-005-016-191700-
NORTH CENTRAL ARKANSAS

CITY           SKY/WX    TMP DP  RH WIND       PRES   REMARKS
BATESVILLE     CLOUDY    39  34  81 NE6       30.30F
FLIPPIN        CLOUDY    37  34  87 E5        30.27S
MTN HOME       CLOUDY    37  35  92 SE5       30.27R FOG
$$

ARZ040-041-191700-
WEST CENTRAL ARKANSAS

CITY           SKY/WX    TMP DP  RH WIND       PRES   REMARKS
MENA           CLOUDY    43  41  93 E7        30.22S
MOUNT IDA      LGT RAIN  41  39  93 CALM      30.23R FOG
$$

ARZ009-017-025-026-028-191700-
NORTHEAST ARKANSAS

CITY           SKY/WX    TMP DP  RH WIND       PRES   REMARKS
CORNING        PTSUNNY   37  32  81 NE7       30.32S HAZE
JONESBORO      CLOUDY    38  34  85 NE12      30.31R
NEWPORT        CLOUDY    39  35  85 NE12      30.32R
WALNUT RIDGE   CLOUDY    37  32  81 NE10      30.31R
BLYTHEVILLE    CLOUDY    39  32  76 NE9       30.31S
$$

ARZ022-023-033-042-044-191700-
CENTRAL ARKANSAS

CITY           SKY/WX    TMP DP  RH WIND       PRES   REMARKS
LITTLE ROCK    CLOUDY    43  37  79 E9        30.29R
N LITTLE ROCK  CLOUDY    41  39  93 NE8       30.29R
JACKSONVILLE   CLOUDY    42  38  85 NE8       30.28R
SEARCY         CLOUDY    41  37  86 NE8       30.32R
HOT SPRINGS    CLOUDY    41  39  93 E6        30.27R FOG
RUSSELLVILLE   CLOUDY    42  38  85 E5        30.26F
CLINTON        CLOUDY    41  37  87 CALM      30.31R FOG
$$

ARZ036-191700-
EAST ARKANSAS

CITY           SKY/WX    TMP DP  RH WIND       PRES   REMARKS
WEST MEMPHIS   CLOUDY    41  36  82 E7        30.29R
$$

ARZ050-053-066-070-073-191700-
SOUTHWEST ARKANSAS

CITY           SKY/WX    TMP DP  RH WIND       PRES   REMARKS
ARKADELPHIA    CLOUDY    43  43 100 E5        30.30R FOG
CAMDEN         CLOUDY    45  39  81 MISG      30.27R HAZE
TEXARKANA      LGT RAIN  43  41  93 E6        30.26R FOG
EL DORADO      LGT RAIN  44  40  85 N10       30.25R
DE QUEEN       LGT RAIN  43  41  93 E9        30.21S FOG
$$

ARZ056-057-069-191700-
SOUTHEAST ARKANSAS

CITY           SKY/WX    TMP DP  RH WIND       PRES   REMARKS
PINE BLUFF     CLOUDY    43  39  86 NE10      30.27S
STUTTGART      CLOUDY    45  39  81 NE13      30.28R
MONTICELLO     CLOUDY    45  40  82 NE8       30.24R

$$




USA.gov is the U.S. government's official web portal to all federal, state and local government web resources and services.